BSAT-4A

Last updated on Sat Sep 05 2026 00:03:05 GMT+0000 (Coordinated Universal Time)

1 42951U 17059B 26247.68034417 -.00000358 00000+0 00000+0 0 9992 2 42951 0.0510 321.7348 0001667 145.2890 231.5289 1.00270318 32597
UTC large
Height (km)
Speed (km/s)
/
Latitude / Longitude
Inclination (degrees)
Orbital Period (minutes)
Azimuth
Elevation
Range (km)
Doppler Factor

Next 0 passes for location: London (51.5072 / 0.1276)

No passes found over London.
BSAT-4A